Location: Passau
(48.5830°N, 13.4830°E)
Time: 23:47:20
(UTC+01:00)

UNISAT 6 - Visible Passes

Search period start: 01 December 2021 00:00
Search period end: 11 December 2021 00:00
Orbit: 605 x 688 km, 97.7° (Epoch: 01 December)

Date Brightness Start Highest point End Pass type
(mag) Time Alt. Az. Time Alt. Az. Time Alt. Az.
01 Dec ? 05:30:24 10° SE 05:34:30 45° ENE 05:38:34 10° N visible
02 Dec ? 04:22:52 10° ENE 04:24:01 11° ENE 04:25:10 10° NE visible
02 Dec ? 05:55:42 10° SSE 06:00:00 81° ENE 06:04:16 10° NNW visible
03 Dec ? 04:46:22 10° ESE 04:49:16 18° ENE 04:52:10 10° NNE visible
03 Dec ? 06:21:22 10° S 06:25:35 56° W 06:29:47 10° NNW visible
04 Dec ? 05:10:53 10° SE 05:14:36 29° ENE 05:18:18 10° N visible
04 Dec ? 06:47:27 10° SSW 06:51:15 31° W 06:55:03 10° NNW visible
04 Dec ? 18:41:59 11° SSE 18:41:59 11° SSE 18:42:06 10° SSE visible
05 Dec ? 05:35:53 10° SSE 05:40:01 51° ENE 05:44:10 10° N visible
05 Dec ? 19:07:45 12° S 19:07:45 12° S 19:08:01 10° S visible
06 Dec ? 04:27:44 10° E 04:29:29 12° ENE 04:31:14 10° NNE visible
06 Dec ? 06:01:16 10° SSE 06:05:32 88° W 06:09:48 10° NNW visible
06 Dec ? 19:33:30 10° SSW 19:33:30 10° SSW 19:33:32 10° SSW visible
07 Dec ? 04:51:37 10° ESE 04:54:45 20° ENE 04:57:52 10° NNE visible
07 Dec ? 06:27:01 10° S 06:31:08 48° W 06:35:16 10° NNW visible
07 Dec ? 18:21:32 10° SSE 18:21:32 10° SSE 18:21:34 10° SSE visible
08 Dec ? 05:16:16 10° SE 05:20:06 33° ENE 05:23:56 10° N visible
08 Dec ? 06:53:12 10° SSW 06:56:50 27° W 07:00:28 10° NW visible
08 Dec ? 18:47:18 13° S 18:47:18 13° S 18:47:50 10° S visible
09 Dec ? 05:41:21 10° SSE 05:45:32 59° ENE 05:49:44 10° N visible
09 Dec ? 19:13:03 14° S 19:13:03 14° S 19:13:38 10° SSW visible
10 Dec ? 04:32:45 10° E 04:34:56 14° ENE 04:37:08 10° NNE visible
10 Dec ? 06:06:49 10° S 06:11:04 77° WSW 06:15:20 10° NNW visible
10 Dec ? 19:38:47 12° SSW 19:38:47 12° SSW 19:39:04 10° SSW visible
